{"data":{"norad_id":49095,"intl_designator":"2021-075W","name":"ONEWEB-0309","alt_names":[],"object_type":"PAYLOAD","status":"ACTIVE","operator":null,"country":"UK","launch_date":"2021-08-21","launch_site_code":"TYMSC","launch_vehicle":null,"mission":null,"orbit_class":"UNKNOWN","rcs_meters":null,"size_class":null,"mass_kg":null,"dimensions":null,"purposes":["comms"],"wikipedia_slug":null,"has_3d_model":false,"image_url":null,"decayed_at":null,"tle_current":{"epoch":"2026-05-25T01:55:44.978880Z","epoch_age_seconds":67864,"freshness":"FRESH","line1":"1 49095U 21075W   26145.08038170  .00000048  00000+0  90883-4 0  9990","line2":"2 49095  87.9152  10.4585 0001398  96.5893 263.5398 13.17650184230530","mean_motion":13.17650184,"eccentricity":0.0001398,"inclination_deg":87.9152,"raan_deg":10.4585,"arg_perigee_deg":96.5893,"mean_anomaly_deg":263.5398,"bstar":9.0883e-5,"rev_number":23053,"period_min":109.28545508403,"perigee_km":1192.6501799427,"apogee_km":1194.7672680071,"semimajor_km":7571.8457239749,"source":"CELESTRAK","updated_at":"2026-05-25T13:38:22.485111Z"}}}